EW1669 Weather Reports


time (UTC)temp
C
wind
direction
speed
KPH
gust
KPH
rain 1hr
cm
rain 24hr
cm
rain mn
cm
humidity
%
barometer
mb
20260502234720 18 196 0.0 6.4 0.00 0.03 0.03 32 1021.4
20260502234209 18 223 3.2 4.8 0.00 0.03 0.03 30 1021.4
20260502233707 18 187 0.0 4.8 0.00 0.03 0.03 31 1021.4
20260502233206 18 225 1.6 4.8 0.00 0.03 0.03 31 1021.1
20260502232707 19 196 0.0 4.8 0.00 0.03 0.03 30 1021.4
20260502232205 18 224 1.6 4.8 0.00 0.03 0.03 30 1021.1
20260502231707 18 220 0.0 12.9 0.00 0.03 0.03 30 1021.1
20260502231207 18 207 0.0 12.9 0.00 0.03 0.03 30 1021.1
20260502230706 19 195 0.0 6.4 0.00 0.03 0.03 30 1021.1
20260502230418 20 193 1.6 4.8 0.00 0.03 0.03 28 1021.4
20260502225645 20 93 0.0 1.6 0.00 0.03 0.03 30 1021.1
20260502225133 19 143 0.0 1.6 0.00 0.03 0.03 30 1021.7
20260502224622 20 191 0.0 0.0 0.00 0.03 0.03 28 1021.4
20260502224107 21 186 0.0 1.6 0.00 0.03 0.03 28 1021.4
20260502223607 20 166 0.0 4.8 0.00 0.03 0.03 29 1021.4
20260502223106 20 155 0.0 4.8 0.00 0.03 0.03 28 1021.4
20260502222608 20 184 0.0 3.2 0.00 0.03 0.03 28 1021.7
20260502222104 20 196 0.0 3.2 0.00 0.03 0.03 28 1021.7
20260502221554 20 205 0.0 4.8 0.00 0.03 0.03 27 1021.4
20260502221303 20 212 0.0 4.8 0.00 0.03 0.03 26 1021.4
20260502220533 21 197 0.0 11.3 0.00 0.03 0.03 26 1021.7
20260502220023 20 221 0.0 11.3 0.00 0.03 0.03 29 1021.7
20260502215508 20 0 0.0 4.8 0.00 0.03 0.03 29 1022.1
20260502215001 19 163 0.0 4.8 0.00 0.03 0.03 31 1022.1
20260502214451 19 206 0.0 0.0 0.00 0.03 0.03 30 1022.1
20260502213942 19 195 0.0 0.0 0.00 0.03 0.03 30 1021.7
20260502213433 20 197 0.0 1.6 0.00 0.03 0.03 29 1021.7
20260502212906 20 188 0.0 1.6 0.00 0.05 0.03 30 1022.1
20260502212407 21 337 0.0 6.4 0.00 0.05 0.03 27 1022.4
20260502211902 20 214 1.6 11.3 0.00 0.05 0.03 30 1022.4
20260502211352 19 208 0.0 11.3 0.00 0.05 0.03 30 1022.4
20260502210843 20 209 4.8 9.7 0.00 0.08 0.03 28 1022.8
20260502210333 21 271 0.0 6.4 0.00 0.10 0.03 28 1022.4
20260502205823 20 237 0.0 6.4 0.00 0.10 0.03 28 1022.8
20260502205531 18 94 0.0 0.0 0.00 0.10 0.03 31 1022.4
20260502204802 18 187 0.0 0.0 0.00 0.10 0.03 30 1022.4
20260502204251 18 133 0.0 3.2 0.00 0.10 0.03 32 1022.8
20260502203742 18 130 0.0 3.2 0.00 0.10 0.03 32 1022.8
20260502203450 19 141 0.0 4.8 0.00 0.10 0.03 31 1022.8
20260502202708 19 140 0.0 9.7 0.00 0.10 0.03 30 1022.8
20260502202204 20 206 0.0 9.7 0.00 0.10 0.03 27 1023.1
20260502201701 19 137 1.6 1.6 0.00 0.10 0.03 30 1022.8
20260502201150 18 115 0.0 11.3 0.00 0.10 0.03 31 1022.8
20260502200642 20 223 0.0 11.3 0.00 0.10 0.03 29 1022.8
20260502200349 19 187 0.0 4.8 0.00 0.10 0.03 32 1023.1
20260502195621 18 201 0.0 6.4 0.00 0.10 0.03 32 1022.8
20260502195109 18 300 1.6 9.7 0.00 0.10 0.03 34 1022.8
20260502194601 18 14 0.0 12.9 0.00 0.10 0.03 33 1023.1
20260502194050 18 346 0.0 12.9 0.00 0.10 0.03 33 1023.1
20260502193540 19 230 0.0 0.0 0.00 0.10 0.03 33 1023.1
20260502193251 18 287 0.0 4.8 0.00 0.10 0.03 34 1023.4
20260502192521 18 214 0.0 4.8 0.00 0.10 0.03 35 1023.4
20260502192008 19 217 1.6 4.8 0.00 0.10 0.03 32 1023.4
20260502191724 19 292 0.0 4.8 0.00 0.10 0.03 35 1023.1
20260502190951 18 297 0.0 4.8 0.00 0.10 0.03 34 1023.1
20260502190440 19 168 0.0 1.6 0.00 0.10 0.03 34 1023.8
20260502185931 18 150 0.0 1.6 0.00 0.10 0.03 37 1023.4
20260502185639 17 215 0.0 3.2 0.00 0.10 0.03 37 1023.4
20260502184907 18 203 0.0 3.2 0.00 0.10 0.03 36 1023.4
20260502184401 18 216 0.0 3.2 0.00 0.10 0.03 36 1023.4
20260502183851 17 139 0.0 6.4 0.00 0.10 0.03 38 1023.8
20260502183339 18 213 3.2 11.3 0.00 0.10 0.03 39 1023.8
20260502182830 17 200 3.2 11.3 0.00 0.10 0.03 37 1023.8
20260502182320 17 174 0.0 17.7 0.00 0.10 0.03 40 1023.8
20260502181810 17 175 0.0 17.7 0.00 0.10 0.03 39 1023.8
20260502181300 17 244 0.0 6.4 0.00 0.10 0.03 41 1023.4
20260502181234 17 207 0.0 9.7 0.00 0.10 0.03 41 1023.8
20260502180242 17 202 1.6 9.7 0.00 0.10 0.03 42 1024.1
20260502163952 16 228 0.0 0.0 0.00 0.10 0.03 48 1024.4
20260502163441 16 224 0.0 1.6 0.00 0.10 0.03 48 1024.4
20260502162932 16 206 0.0 1.6 0.00 0.13 0.03 49 1024.4
20260502162408 15 223 0.0 1.6 0.00 0.13 0.03 51 1024.4
20260502161859 15 202 0.0 4.8 0.00 0.13 0.03 50 1024.4
20260502161350 15 219 3.2 4.8 0.00 0.15 0.03 51 1024.1
20260502160840 15 186 0.0 4.8 0.00 0.15 0.03 50 1024.1
20260502160604 15 263 0.0 4.8 0.00 0.18 0.03 51 1024.1
20260502151709 13 188 0.0 1.6 0.00 0.30 0.03 57 1024.4
20260502151208 13 182 0.0 1.6 0.00 0.30 0.03 58 1024.1
20260502150705 13 243 0.0 0.0 0.00 0.30 0.03 60 1024.1
20260502150156 13 244 0.0 3.2 0.00 0.30 0.03 61 1024.4
20260502130327 6 25 0.0 0.0 0.00 0.30 0.03 89 1023.4
20260502123757 3 26 0.0 0.0 0.00 0.30 0.03 92 1023.8
20260502123245 3 26 0.0 0.0 0.00 0.30 0.03 92 1023.4
20260502122735 3 26 0.0 0.0 0.00 0.30 0.03 92 1023.4
20260502122447 2 26 0.0 0.0 0.00 0.30 0.03 92 1023.4
20260502121707 2 26 0.0 0.0 0.00 0.30 0.03 92 1023.4
20260502121206 2 26 0.0 0.0 0.03 0.30 0.03 92 1023.1
20260502120707 2 26 0.0 0.0 0.03 0.30 0.03 92 1023.1
20260502120207 2 26 0.0 0.0 0.03 0.30 0.03 92 1022.8
20260502115706 2 26 0.0 0.0 0.03 0.30 0.03 92 1022.8
20260502115207 2 26 0.0 0.0 0.03 0.30 0.03 92 1022.8
20260502114659 2 26 0.0 0.0 0.03 0.33 0.03 92 1022.8
20260502114147 3 26 0.0 0.0 0.03 0.33 0.03 92 1023.1
20260502113636 3 26 0.0 0.0 0.03 0.33 0.03 92 1023.1
20260502113354 3 26 0.0 0.0 0.03 0.36 0.03 92 1022.8
20260502112607 3 26 0.0 0.0 0.03 0.36 0.03 92 1022.8
20260502112322 3 26 0.0 0.0 0.03 0.36 0.03 92 1022.8
20260502111813 3 26 0.0 0.0 0.00 0.33 0.00 92 1023.1
20260502111043 3 26 0.0 0.0 0.00 0.36 0.00 92 1023.1
20260502110535 3 26 0.0 0.0 0.00 0.36 0.00 92 1023.1
20260502110009 3 26 0.0 0.0 0.00 0.36 0.00 92 1022.8
20260502105459 3 26 0.0 0.0 0.00 0.36 0.00 92 1023.1
20260502104949 3 26 0.0 0.0 0.00 0.36 0.00 92 1023.1
20260502104658 3 26 0.0 0.0 0.00 0.36 0.00 92 1023.1
20260502103926 3 26 0.0 0.0 0.00 0.36 0.00 92 1023.1
20260502103416 3 26 0.0 0.0 0.00 0.36 0.00 92 1023.1
20260502102906 3 26 0.0 0.0 0.00 0.36 0.00 92 1023.1
20260502102407 3 26 0.0 0.0 0.00 0.36 0.00 92 1023.4
20260502102118 3 26 0.0 0.0 0.00 0.36 0.00 92 1023.1
20260502101602 3 26 0.0 0.0 0.00 0.36 0.00 91 1023.1
20260502101110 3 26 0.0 0.0 0.00 0.36 0.00 91 1023.4
20260502100340 3 26 0.0 0.0 0.00 0.36 0.00 91 1023.4
20260502091208 4 26 0.0 0.0 0.00 0.36 0.00 91 1023.1
20260502090706 4 26 0.0 0.0 0.00 0.36 0.00 91 1022.8
20260502090204 4 26 0.0 0.0 0.00 0.36 0.00 91 1022.8
20260502070902 4 26 0.0 0.0 0.00 0.36 0.00 89 1022.8
20260502070401 4 26 0.0 0.0 0.00 0.36 0.00 89 1023.1
20260502065853 4 26 0.0 0.0 0.00 0.36 0.00 89 1022.8
20260502065340 4 26 0.0 3.2 0.00 0.36 0.00 89 1022.8
20260502064828 4 26 1.6 3.2 0.00 0.36 0.00 89 1023.1
20260502064545 4 26 0.0 0.0 0.00 0.36 0.00 89 1023.4
20260502063823 4 26 0.0 0.0 0.00 0.36 0.00 89 1023.1
20260502063309 4 26 0.0 0.0 0.00 0.36 0.00 89 1022.8
20260502062759 4 26 0.0 0.0 0.00 0.36 0.00 89 1022.8
20260502062246 4 26 0.0 0.0 0.00 0.36 0.00 89 1022.8
20260502061734 4 26 0.0 0.0 0.00 0.36 0.00 89 1023.1
20260502061445 4 26 0.0 0.0 0.00 0.36 0.00 89 1023.1
20260502060708 4 26 0.0 0.0 0.00 0.36 0.00 89 1023.4
20260502060158 4 26 0.0 0.0 0.00 0.36 0.00 89 1022.8
20260502055644 4 26 0.0 0.0 0.00 0.36 0.36 89 1023.1
20260502055133 4 26 0.0 0.0 0.00 0.36 0.36 88 1023.1
20260502055101 4 26 0.0 0.0 0.00 0.36 0.36 88 1023.1
20260502054107 4 26 0.0 0.0 0.00 0.36 0.36 88 1023.1
20260502053832 4 26 0.0 0.0 0.00 0.36 0.36 88 1022.8
20260502053325 5 26 0.0 0.0 0.00 0.36 0.36 88 1022.8
20260502052545 5 26 0.0 0.0 0.00 0.36 0.36 87 1022.8
20260502052035 5 26 0.0 0.0 0.00 0.36 0.36 87 1022.8
20260502051521 5 26 0.0 0.0 0.00 0.36 0.36 87 1022.8
20260502051008 5 26 0.0 0.0 0.00 0.36 0.36 87 1022.8
20260502050507 5 26 0.0 0.0 0.00 0.36 0.36 87 1022.8
20260502050004 5 26 0.0 0.0 0.00 0.36 0.36 87 1023.1
20260502045450 5 26 0.0 0.0 0.00 0.36 0.36 87 1022.8
20260502044937 5 26 0.0 0.0 0.00 0.36 0.36 87 1022.8
20260502044426 5 26 0.0 0.0 0.00 0.36 0.36 87 1023.1
20260502043912 5 26 0.0 0.0 0.00 0.36 0.36 87 1023.1
20260502043400 5 26 0.0 0.0 0.00 0.36 0.36 88 1022.8
20260502042847 5 26 0.0 0.0 0.00 0.36 0.36 88 1022.8
20260502042336 5 26 0.0 0.0 0.00 0.36 0.36 88 1023.1
20260502042042 5 26 0.0 0.0 0.00 0.36 0.36 88 1023.1
20260502041535 5 26 0.0 0.0 0.00 0.36 0.36 88 1022.8
20260502040807 5 26 0.0 0.0 0.00 0.36 0.36 88 1023.4
20260502040300 5 26 0.0 0.0 0.00 0.36 0.36 87 1023.1
20260502040014 5 26 0.0 0.0 0.00 0.36 0.36 87 1023.1
20260502035233 5 26 0.0 0.0 0.00 0.36 0.36 87 1022.8
20260502034722 5 26 0.0 0.0 0.00 0.36 0.36 87 1023.1
20260502034208 5 26 0.0 0.0 0.00 0.36 0.36 86 1022.8
20260502033708 5 26 0.0 0.0 0.00 0.36 0.36 86 1022.8
20260502033208 6 26 0.0 0.0 0.00 0.36 0.36 85 1022.8
20260502032924 6 26 0.0 0.0 0.00 0.36 0.36 85 1023.1
20260502032151 6 26 0.0 0.0 0.00 0.36 0.36 85 1022.8
20260502031640 6 26 0.0 0.0 0.00 0.36 0.36 84 1022.8
20260502031130 6 26 0.0 0.0 0.00 0.36 0.36 84 1022.8
20260502030617 6 26 0.0 0.0 0.00 0.36 0.36 83 1022.8
20260502030105 7 26 0.0 0.0 0.00 0.36 0.36 83 1022.8
20260502025551 7 26 0.0 0.0 0.00 0.36 0.36 82 1022.8
20260502025034 7 26 0.0 0.0 0.00 0.36 0.36 82 1022.4
20260502024530 7 26 0.0 0.0 0.00 0.36 0.36 81 1022.1
20260502024008 7 26 0.0 0.0 0.00 0.36 0.36 81 1022.4
20260502023507 7 26 0.0 0.0 0.00 0.36 0.36 81 1022.1
20260502023000 7 26 0.0 0.0 0.00 0.36 0.36 81 1022.4
20260502022448 7 26 0.0 0.0 0.00 0.36 0.36 81 1022.1
20260502021933 7 26 0.0 0.0 0.00 0.36 0.36 80 1021.7
20260502021421 7 26 0.0 0.0 0.00 0.36 0.36 80 1021.7
20260502020908 7 26 0.0 0.0 0.00 0.36 0.36 79 1021.7
20260502020357 8 26 0.0 0.0 0.00 0.36 0.36 79 1021.7
20260502020108 8 26 0.0 0.0 0.00 0.36 0.36 78 1021.7
20260502015332 8 26 0.0 0.0 0.00 0.36 0.36 77 1021.7
20260502015035 8 26 0.0 0.0 0.00 0.36 0.36 77 1021.1
20260502014307 8 26 0.0 0.0 0.00 0.36 0.36 76 1021.4
20260502013754 8 26 0.0 0.0 0.00 0.36 0.36 75 1021.4
20260502013241 9 26 0.0 0.0 0.00 0.36 0.36 73 1021.4
20260502012730 9 26 0.0 0.0 0.00 0.36 0.36 72 1021.4
20260502012218 9 26 0.0 0.0 0.00 0.36 0.36 70 1021.4
20260502011926 9 26 0.0 0.0 0.00 0.36 0.36 68 1021.1
20260502011153 10 26 0.0 0.0 0.00 0.36 0.36 67 1021.4
20260502010639 10 28 0.0 0.0 0.00 0.36 0.36 67 1021.1
20260502010402 10 39 0.0 0.0 0.00 0.36 0.36 67 1021.1
20260502005634 10 39 0.0 0.0 0.00 0.36 0.36 67 1021.1
20260502005600 10 33 0.0 0.0 0.00 0.36 0.36 67 1021.1
20260502004558 10 65 0.0 0.0 0.00 0.36 0.36 67 1021.1
20260502004046 10 62 0.0 0.0 0.00 0.36 0.36 66 1020.7
20260502004031 10 62 0.0 6.4 0.00 0.36 0.36 65 1020.7
20260502003022 10 84 0.0 6.4 0.00 0.36 0.36 66 1020.7
20260502002728 10 59 0.0 3.2 0.00 0.36 0.36 66 1020.7
20260502001955 10 38 0.0 4.8 0.00 0.36 0.36 67 1020.7
20260502001442 10 62 0.0 0.0 0.00 0.36 0.36 69 1020.7
20260502000929 10 58 0.0 1.6 0.00 0.36 0.36 69 1020.7
20260502000425 10 95 0.0 1.6 0.00 0.36 0.36 71 1020.4
20260501235908 10 27 0.0 3.2 0.00 0.36 0.36 72 1020.4
20260501235406 10 33 0.0 4.8 0.00 0.36 0.36 71 1020.7
20260501235127 10 31 0.0 9.7 0.00 0.36 0.36 73 1020.7